Regional Weather Roundup
Issued by NWS Cleveland, OH

Home | Current Version | Previous Version | Graphics & Text | Print | Product List | Glossary On
Versions: 1 2 3 4 5 6 7 8 9 10 11 12 13 14 15 16 17 18 19 20 21 22 23 24 25 26 27 28 29 30 31 32 33 34 35 36 37 38 39 40 41 42 43 44 45 46 47 48 49 50
000
ASUS41 KCLE 221812
RWRCLE
OHIO REGIONAL WEATHER ROUNDUP
NATIONAL WEATHER SERVICE WILMINGTON, OH
100 PM EST THU FEB 22 2018

NOTE: "FAIR" INDICATES FEW OR NO CLOUDS BELOW 12,000 FEET WITH NO
SIGNIFICANT WEATHER AND/OR OBSTRUCTIONS TO VISIBILITY.

OHZ001>008-015>018-024>027-034-035-043-044-221900-
   NORTHWEST OHIO

CITY           SKY/WX    TMP DP  RH WIND       PRES   REMARKS
DEFIANCE       CLOUDY    36  31  82 NE12      30.53F
FINDLAY        CLOUDY    38  33  82 NE14      30.52F
TOLEDO EXPRESS CLOUDY    36  31  82 NE17      30.56F
TOLEDO EXEC    CLOUDY    35  28  75 NE13G22   30.59F WCI  26
LIMA           CLOUDY    41  38  89 NE20      30.47F
$$

OHZ009>014-019>023-028>033-038-089-221900-
   NORTHEAST OHIO

CITY           SKY/WX    TMP DP  RH WIND       PRES   REMARKS
CLE-HOPKINS    CLOUDY    38  36  92 E8        30.58F
CLE-LAKEFRONT  PTSUNNY   37  34  89 NE8       30.56F
CUY CO. ARPT   CLOUDY    37  36  93 E9        30.56F
LORAIN-ELYRIA  CLOUDY    35  30  82 NE13      30.55F WCI  26
ASHTABULA      CLOUDY    32  32 100 NE8       30.60F WCI  25
AKRON-CANTON   CLOUDY    41  37  86 NE14      30.50F
WOOSTER        PTSUNNY   39  37  92 NE15      30.51F
MANSFIELD      CLOUDY    39  37  92 NE14G21   30.49F
YOUNGSTOWN     LGT RAIN  40  37  89 NE10      30.54F FOG
$$

OHZ042-051>053-060>062-070>072-077>081-221900-
  SOUTHWEST OHIO

CITY           SKY/WX    TMP DP  RH WIND       PRES   REMARKS
CINC-COVINGTON CLOUDY    44  41  89 E13       30.42F
CINC-LUNKEN    CLOUDY    45  42  89 NE9       30.46F
HAMILTON       CLOUDY    45  31  58 E10       30.45S
DAYTON         PTSUNNY   44  41  89 E16G30    30.43F
WRIGHT-PAT AFB CLOUDY    46  39  76 NE22      30.42F
DAYTON GENERAL CLOUDY    45  39  79 E14       30.42F
WILMINGTON     CLOUDY    42  40  92 NE15G24   30.41F
$$

OHZ036-037-039>041-045>050-054>059-063>069-073>076-082>088-221900-
  CENTRAL AND SOUTHEAST OHIO

CITY           SKY/WX    TMP DP  RH WIND       PRES   REMARKS
COLUMBUS       CLOUDY    45  40  82 NE18      30.46F
OSU AIRPORT    PTSUNNY   46  40  79 NE18      30.46F
BOLTON FIELD   CLOUDY    43  37  81 NE14      30.47F
RICKENBACK AFB CLOUDY    43  41  93 NE14      30.46F
NEWARK         CLOUDY    45  39  79 NE8G20    30.47F
MARION         CLOUDY    43  39  86 E15       30.50F
LANCASTER      CLOUDY    43  32  65 NE15      30.46F
ZANESVILLE     CLOUDY    43  40  89 NE12      30.47F FOG
NEW PHILLY     CLOUDY    42  38  85 NE8G17    30.49F
$$




USA.gov is the U.S. government's official web portal to all federal, state and local government web resources and services.